Location: Madrid
(40.4000°N, 3.6830°W)
Time: 19:31:26
(UTC+02:00)

ISS - Pass Details

Date: 16 September 2020
Orbit: 419 x 421 km, 51.6° (Epoch: 30 September)

Event Time Altitude Azimuth Distance (km) Brightness Sun altitude
Rises 21:30:16 0° 211° (SSW) 2,350 0.3 -13.8°
Reaches altitude 10° 21:32:28 10° 201° (SSW) 1,491 -0.9 -14.2°
Maximum altitude 21:35:31 33° 136° (SE) 725 -3.0 -14.7°
Enters shadow 21:35:57 32° 118° (ESE) 748 -3.1 -14.8°
